ARIANE 5 R/B

基本信息
目录编号:
49335
目录名称:
ARIANE 5 R/B
国际标识:
2021-095D
轨道中心:
EARTH
物体状态:
在轨
发射日期:
2021-10-24 UTC
国别:
法国 (FR)
轨道信息
数据来源: 国际轨道数据
星历时间: 2026-07-13T17:46:07+0800
半长轴: 22604.291km
偏心率: 0.708529
轨道倾角: 5.503°
近地点辐角: 263.689°
升交点赤经: 207.476°
平近点角: 18.509°
近地点: 210.358km
远地点: 32241.95km
周期: 563.697分钟
每日圈数: 2.554562
详细信息
发射场:
FRGUI
轨道高度:
LEO
数据来源:
AOE Integration Group
参考系:
TEME
时间系统:
UTC
历元类型:
SGP4
2D轨道图
3D轨道图
轨道高度分析图
轨道倾角分析图
轨道综合分析图
查看轨道综合分析图